Weather History for Jackson, WY

Change the Weather History Date:

Monday, June 17, 2013

  Actual Average Record
Temperature  
Mean Temperature 58 °F -  
Max Temperature 78 °F 68 °F 85 °F (1961)
Min Temperature 37 °F 36 °F 26 °F (2000)
Degree Days  
Heating Degree Days 8    
Growing Degree Days 8 (Base 50)    
Moisture  
Dew Point 32 °F    
Average Humidity 45    
Maximum Humidity 81    
Minimum Humidity 14    
Precipitation  
Precipitation 0.00 in - - ()
Sea Level Pressure  
Sea Level Pressure 30.19 in    
Wind  
Wind Speed 6 mph (NNE)    
Max Wind Speed 17 mph    
Max Gust Speed 18 mph    
Visibility 8 miles    
Events      
Averages and records for this station are not official NWS values.
T = Trace of Precipitation, MM = Missing Value Source: NWS Daily Summary

Daily Weather History Graph

Daily Weather History Graph

Search for Another Location

Airport:

Trip Planner

Search our weather history database for the weather conditions in past years. The results will help you decide how hot, cold, wet, or windy it might be!

Date:

Astronomy

Jun. 17, 2013 Rise Set
Actual Time 5:41 AM MDT 9:06 PM MDT
Civil Twilight 5:05 AM MDT 9:42 PM MDT
Nautical Twilight 4:18 AM MDT 10:30 PM MDT
Astronomical Twilight 3:18 AM MDT 11:29 PM MDT
Moon 2:40 PM MDT (6/17) 1:29 AM MDT (6/17)
Length of Visible Light 16h 37m
Length of Day
15h 25m
First Quarter, 61% of the Moon is Illuminated
Jun 17
First Quarter
Jun 23
Full
Jun 29
Last Quarter
Jul 8
New
Jul 15
First Quarter

Hourly Weather History & Observations

Time (MDT) Temp. Windchill Dew Point Humidity Pressure Visibility Wind Dir Wind Speed Gust Speed Precip Events Conditions
12:15 AM 53.6 °F - 33.8 °F 47% 30.18 in 7.0 mi North 17.3 mph - N/A   Clear
12:35 AM 51.8 °F - 33.8 °F 50% 30.19 in 5.0 mi North 12.7 mph - N/A   Clear
12:55 AM 51.8 °F - 33.8 °F 50% 30.20 in 2.0 mi Calm Calm - N/A   Clear
1:15 AM 50.0 °F - 32.0 °F 50% 30.20 in 4.0 mi North 4.6 mph - N/A   Clear
1:36 AM 50.0 °F - 32.0 °F 50% 30.20 in 3.0 mi ENE 4.6 mph - N/A   Clear
1:55 AM 51.8 °F - 32.0 °F 47% 30.21 in 2.5 mi North 6.9 mph - N/A   Clear
2:15 AM 50.0 °F - 32.0 °F 50% 30.21 in 6.0 mi Calm Calm - N/A   Clear
2:55 AM 46.4 °F 45.2 °F 33.8 °F 62% 30.21 in 3.0 mi NE 3.5 mph - N/A   Clear
3:15 AM 46.4 °F - 33.8 °F 62% 30.21 in 9.0 mi Calm Calm - N/A   Clear
3:35 AM 46.4 °F - 33.8 °F 62% 30.21 in 3.0 mi Calm Calm - N/A   Clear
3:55 AM 48.2 °F - 32.0 °F 54% 30.21 in 1.8 mi NNE 3.5 mph - N/A   Clear
4:55 AM 44.6 °F - 32.0 °F 61% 30.22 in 1.5 mi Calm Calm - N/A   Clear
5:15 AM 44.6 °F - 32.0 °F 61% 30.22 in 10.0 mi Calm Calm - N/A   Clear
5:55 AM 37.4 °F 32.1 °F 32.0 °F 81% 30.24 in 8.0 mi North 6.9 mph - N/A   Clear
6:15 AM 37.4 °F 34.9 °F 32.0 °F 81% 30.24 in 1.5 mi NNE 3.5 mph - N/A   Clear
6:35 AM 39.2 °F - 33.8 °F 81% 30.24 in 2.0 mi Calm Calm - N/A   Clear
6:52 AM 44.6 °F - 33.8 °F 66% 30.25 in 10.0 mi Calm Calm - N/A   Clear
7:53 AM 50.0 °F - 33.8 °F 54% 30.25 in 10.0 mi Calm Calm - N/A   Clear
8:51 AM 55.4 °F - 33.8 °F 44% 30.26 in 10.0 mi Calm Calm - N/A   Clear
9:51 AM 60.8 °F - 37.4 °F 42% 30.25 in 10.0 mi South 4.6 mph - N/A   Clear
10:51 AM 64.4 °F - 39.2 °F 40% 30.23 in 10.0 mi SE 5.8 mph - N/A   Clear
11:51 AM 69.8 °F - 37.4 °F 31% 30.22 in 10.0 mi South 4.6 mph - N/A   Clear
12:53 PM 73.4 °F - 33.8 °F 23% 30.19 in 10.0 mi South 9.2 mph - N/A   Partly Cloudy
12:58 PM 73.4 °F - 33.8 °F 23% 30.19 in 10.0 mi SSW 8.1 mph - N/A   Clear
1:51 PM 73.4 °F - 26.6 °F 18% 30.18 in 10.0 mi Calm Calm - N/A   Clear
2:59 PM 78.8 °F - 28.4 °F 16% 30.16 in 10.0 mi South 13.8 mph 18.4 mph N/A   Clear
3:53 PM 75.2 °F - 26.6 °F 17% 30.15 in 10.0 mi SW 4.6 mph - N/A   Clear
4:51 PM 78.8 °F - 24.8 °F 14% 30.13 in 10.0 mi SSW 8.1 mph 16.1 mph N/A   Clear
7:52 PM 75.2 °F - 26.6 °F 17% 30.12 in 10.0 mi NW 5.8 mph - N/A   Partly Cloudy
8:52 PM 71.6 °F - 28.4 °F 20% 30.12 in 10.0 mi Calm Calm - N/A   Clear
9:15 PM 64.4 °F - 28.4 °F 26% 30.12 in 10.0 mi Calm Calm - N/A   Clear
9:35 PM 60.8 °F - 30.2 °F 31% 30.12 in 10.0 mi NNE 3.5 mph - N/A   Clear
9:55 PM 60.8 °F - 28.4 °F 29% 30.13 in 10.0 mi NW 4.6 mph - N/A   Clear
10:15 PM 57.2 °F - 28.4 °F 33% 30.13 in 10.0 mi Calm Calm - N/A   Clear
10:35 PM 53.6 °F - 33.8 °F 47% 30.13 in 10.0 mi NNE 3.5 mph - N/A   Clear
10:55 PM 51.8 °F - 35.6 °F 54% 30.13 in 10.0 mi NE 3.5 mph - N/A   Clear
11:15 PM 51.8 °F - 33.8 °F 50% 30.13 in 10.0 mi NNE 3.5 mph - N/A   Clear
11:35 PM 50.0 °F - 33.8 °F 54% 30.13 in 10.0 mi North 5.8 mph - N/A   Clear
11:55 PM 48.2 °F - 33.8 °F 58% 30.13 in 10.0 mi North 4.6 mph - N/A   Clear